Location: Alfortville
(48.8058°N, 2.4204°E)
Time: 04:06:59
(UTC+00:00)

Cosmos 1980 Rocket - Pass Details

Date: 25 May 2022
Orbit: 827 x 851 km, 71.0° (Epoch: 05 July)

Event Time Altitude Azimuth Distance (km) Brightness Sun altitude
Rises 20:37:46 0° 191° (S) 3,367 5.0 -8.4°
Reaches altitude 10° 20:40:14 10° 186° (S) 2,441 4.2 -8.7°
Maximum altitude 20:45:40 54° 111° (ESE) 1,018 2.3 -9.3°
Drops below altitude 10° 20:51:10 10° 36° (NE) 2,473 4.8 -9.9°
Sets 20:53:40 0° 32° (NNE) 3,416 5.6 -10.1°
